Погода в Огнёвке

Россия / Республика Алтай     50°13′57″N   85°31′12″E
темп.,
°C
ветер,
м/с
пор.,
м/с
влажн.,
%
обл.,
%
осадки,
мм/ч
давл.,
гПа
погр.,
м
14 апреля, ср
ср1401:00−4ссз22855 1.2 1034106
04:00−4ссз12834 0.0 103486
07:00−4ссз11754 0.0 103569
10:00−1ссв01492 0.0 1035619
13:00+2ююв11423 0.0 10321079
16:00+3ююз11457 0.0 10301003
19:00+2зюз0162100 0.0 1029315
22:00−1всв0175100 0.0 103111
15 апреля, чт
чт1501:00−1юв0177100 0.0 103011
04:00−2в117957 0.0 103010
07:00−2в01764 0.0 103023
10:00+3вюв11570 0.0 1027334
13:00+7ююв11461 0.0 1024797
16:00+8ююз11455 0.0 1022982
19:00+6юз11605 0.0 1021369
22:00+2юз01743 0.0 102413
16 апреля, пт
пт1601:000ю11790 0.0 102412
04:00−1ююв11821 0.0 102411
07:000ююв01813 0.0 102414
10:00+5юв11570 0.0 1021357
13:00+10ю12400 0.0 10181024
16:00+11юз23340 0.0 10161690
19:00+9юз22490 0.0 1016502
22:00+4юз11670 0.0 101817
17 апреля, сб
сб1701:00+2ю11695 0.0 101813
04:00+1юв1169100 0.0 101711
07:00+2юв1168100 0.0 101615
10:00+6юв2250100 0.0 1013254
13:00+11ююз2534100 0.0 10091479
16:00+7зюз4857100 0.1 10111209
19:00+5ю237343 0.3 1012543
22:00+2ююв118889 0.0 101428
18 апреля, вс
вс1801:00+2ю228884 0.1 101446
04:00+1ююз119025 0.1 101422
07:000ююз119245 0.1 101538
10:00+6юз465575 0.4 10121535
13:00+8зюз6104788 0.4 10112026
16:00+8зюз7115291 0.3 10102083
19:00+6юз4106431 1.3 10111375
22:00+4юз2373100 0.5 1011262